Orbital Elements at Epoch 2459200.5 (2020-Dec-17.0) TDB
Reference: JPL 22 (heliocentric ecliptic J2000)
Element | Value | Uncertainty (1-sigma) | Units |
e | .1440848995484594 | 4.5362e-08 | |
a | 3.029158867108142 | 1.8227e-08 | au |
q | 2.59270281602454 | 1.4152e-07 | au |
i | 1.974839530282607 | 5.03e-06 | deg |
node | 342.6299563012982 | 0.00012181 | deg |
peri | 148.895478750534 | 0.00012352 | deg |
M | 353.3713574709583 | 1.7746e-05 | deg |
tp | 2459235.957131773639 (2021-Jan-21.45713177) | 9.4926e-05 | TDB |
period | 1925.668397803236 5.27 | 1.7381e-05 4.759e-08 | d yr |
n | .1869480749700628 | 1.6874e-09 | deg/d |
Q | 3.465614918191743 | 2.0854e-08 | au |
|
| | Orbit Determination Parameters
Additional Information
|